This is the latest recevied weather packets stored in our database for station/object K9RJT. If no packets are shown the sender has not sent any weather packets the latest 10 day(s).
| Time | Temp. | Humidity | Pressure | Rain* | Wind** | Luminosity | Snow |
|---|---|---|---|---|---|---|---|
| 1778130955 | 15.56° C | 56% | 1014.9 hPa | 0 mm | - | 0 W/m² | - |
| 1778130652 | 15.56° C | 57% | 1014.7 hPa | 0 mm | - | 0 W/m² | - |
| 1778130348 | 16.11° C | 56% | 1014.6 hPa | 0 mm | - | 0 W/m² | - |
| 1778130045 | 16.11° C | 56% | 1014.3 hPa | 0 mm | - | 0 W/m² | - |
| 1778129742 | 16.67° C | 55% | 1014.6 hPa | 0 mm | - | 0 W/m² | - |
| 1778129439 | 17.22° C | 54% | 1014.6 hPa | 0 mm | - | 0 W/m² | - |
| 1778129136 | 17.78° C | 52% | 1014.7 hPa | 0 mm | - | 0 W/m² | - |
| 1778128832 | 17.78° C | 51% | 1014.6 hPa | 0 mm | - | 0 W/m² | - |
| 1778128528 | 17.78° C | 51% | 1014.3 hPa | 0 mm | - | 0 W/m² | - |
| 1778128226 | 17.78° C | 51% | 1014.5 hPa | 0 mm | - | 0 W/m² | - |
| 1778127922 | 17.78° C | 52% | 1014.5 hPa | 0 mm | - | 0 W/m² | - |
| 1778127617 | 18.33° C | 51% | 1014.5 hPa | 0 mm | - | 0 W/m² | - |
| 1778127315 | 18.33° C | 51% | 1014.2 hPa | 0 mm | - | 0 W/m² | - |
| 1778127011 | 18.33° C | 50% | 1014.2 hPa | 0 mm | - | 0 W/m² | - |
| 1778126707 | 18.33° C | 50% | 1014.3 hPa | 0 mm | - | 0 W/m² | - |
| 1778126403 | 18.89° C | 49% | 1014.2 hPa | 0 mm | - | 0 W/m² | - |
| 1778126100 | 18.89° C | 49% | 1014.1 hPa | 0 mm | - | 0 W/m² | - |
| 1778125796 | 18.89° C | 49% | 1014.1 hPa | 0 mm | - | 0 W/m² | - |
| 1778125493 | 18.89° C | 49% | 1014 hPa | 0 mm | - | 0 W/m² | - |
| 1778125192 | 19.44° C | 48% | 1014 hPa | 0 mm | - | 0 W/m² | - |
| 1778124889 | 19.44° C | 47% | 1014 hPa | 0 mm | - | 0 W/m² | - |
| 1778124586 | 20° C | 46% | 1013.8 hPa | 0 mm | - | 0 W/m² | - |
| 1778124283 | 20° C | 46% | 1014 hPa | 0 mm | - | 1 W/m² | - |
| 1778123979 | 20° C | 45% | 1013.9 hPa | 0 mm | - | 1 W/m² | - |
| 1778123676 | 20° C | 45% | 1013.8 hPa | 0 mm | - | 2 W/m² | - |
* Rain latest hour (hover to see other rain measurements)
** Current wind speed in m/s (hover to see current wind gust speed)